Weather in Belky

Ukraine / Zakarpattia District     48°19′46″N   23°08′22″E
temp.,
°C
wind,
m/s
gust,
m/s
humid.,
%
clouds,
%
prec.,
mm/h
press.,
hPa
HPBL,
m
21 april, wed
wed2100:00+5ene118975 0.3 101311
03:00+4e119239 0.5 101410
06:00+3e119532 0.1 101510
09:00+7sse2289100 0.1 1016460
12:00+8s2283100 0.0 1017628
15:00+11sse227186 0.0 1016881
18:00+12ssw236865 0.2 1015982
21:00+7se119116 1.3 101610
22 april, thu
thu2200:00+6ese2196100 1.1 101724
03:00+6ese119573 2.1 101818
06:00+6se119372 0.3 101726
09:00+8se1289100 0.3 1018143
12:00+10s3783100 0.3 1018932
15:00+14sw696560 1.2 10151799
18:00+13sw5974100 2.2 1014980
21:00+9sse2291100 5.9 101531
23 april, fri
fri2300:00+7n2494100 1.9 1017140
03:00+6nnw2386100 2.3 101779
06:00+4nnw2286100 0.0 101832
09:00+6nnw23711 0.0 1020425
12:00+10w34458 0.0 10201759
15:00+10w674681 0.1 10201997
18:00+9wsw455840 0.1 10201161
21:00+6w1182100 0.6 102028
24 april, sat
sat2400:00+4wnw129580 1.4 1022136
03:00+2nw11932 1.4 102316
06:000ne228877 0.0 102423
09:00+3wsw1272100 0.0 1025303
12:00+8w474699 0.0 10242094
15:00+9w5643100 0.0 10232137
18:00+9wsw455182 0.0 10221588
21:00+4n117419 0.1 102410
25 april, sun
sun2500:00+3e217993 0.0 102313
03:00+3ne238896 0.4 1023117
06:00+3nne1298100 0.8 1022203
09:00+4nnw128992 1.1 1023471
12:00+7wnw346596 0.6 10231100
15:00+9nnw464856 1.3 10222046
18:00+9wnw454866 0.0 10221934
21:00+3nnw23685 0.0 102428